Weather History for KCKC - October, 2014

Change the Weather History Date:

Monday, October 27, 2014

  Actual Average Record
Temperature  
Mean Temperature 44 °F -  
Max Temperature 51 °F - - ()
Min Temperature 37 °F - - ()
Degree Days  
Heating Degree Days 21    
Moisture  
Dew Point 35 °F    
Average Humidity 78    
Maximum Humidity 93    
Minimum Humidity 58    
Precipitation  
Precipitation 0.00 in - - ()
Sea Level Pressure  
Sea Level Pressure 29.65 in    
Wind  
Wind Speed 8 mph (NE)    
Max Wind Speed 13 mph    
Max Gust Speed 17 mph    
Visibility 10 miles    
Events Thunderstorm    
T = Trace of Precipitation, MM = Missing Value Source: NWS Daily Summary

Daily Weather History Graph

Daily Weather History Graph

Search for Another Location

Airport or City:

Trip Planner

Search our weather history database for the weather conditions in past years. The results will help you decide how hot, cold, wet, or windy it might be!

Date:

Astronomy

Oct. 27, 2014 Rise Set
Actual Time 7:38 AM CDT 5:51 PM CDT
Civil Twilight 7:06 AM CDT 6:23 PM CDT
Nautical Twilight 6:30 AM CDT 6:59 PM CDT
Astronomical Twilight 5:54 AM CDT 7:35 PM CDT
Moon 11:22 AM CDT (10/27) 8:48 PM CDT (10/27)
Length of Visible Light 11h 16m
Length of Day
10h 13m
Waxing Crescent, 15% of the Moon is Illuminated
Oct 27
Waxing Crescent
Oct 30
First Quarter
Nov 6
Full
Nov 14
Last Quarter
Nov 22
New

Hourly Weather History & Observations

Time (CDT) Temp. Windchill Dew Point Humidity Pressure Visibility Wind Dir Wind Speed Gust Speed Precip Events Conditions
12:14 AM 37.4 °F 32.8 °F 30.2 °F 75% 29.76 in 10.0 mi East 5.8 mph - N/A   Overcast
12:33 AM 37.4 °F 32.1 °F 30.2 °F 75% 29.76 in 10.0 mi NE 6.9 mph - N/A   Overcast
12:53 AM 37.4 °F 30.8 °F 30.2 °F 75% 29.74 in 10.0 mi ENE 9.2 mph - N/A   Overcast
1:14 AM 37.4 °F 30.3 °F 30.2 °F 75% 29.76 in 10.0 mi ENE 10.4 mph - N/A Thunderstorm Overcast
1:33 AM 37.4 °F 30.3 °F 30.2 °F 75% 29.75 in 10.0 mi NE 10.4 mph - N/A   Overcast
1:53 AM 37.4 °F 31.4 °F 32.0 °F 81% 29.75 in 10.0 mi NNE 8.1 mph - N/A   Overcast
2:14 AM 37.4 °F 30.8 °F 32.0 °F 81% 29.74 in 10.0 mi NNE 9.2 mph - N/A   Overcast
2:33 AM 37.4 °F 29.8 °F 32.0 °F 81% 29.73 in 10.0 mi NE 11.5 mph - N/A Thunderstorm Overcast
2:53 AM 37.4 °F 30.3 °F 32.0 °F 81% 29.73 in 10.0 mi NE 10.4 mph 17.3 mph N/A   Overcast
3:13 AM 37.4 °F 29.8 °F 32.0 °F 81% 29.72 in 10.0 mi ENE 11.5 mph - N/A   Overcast
3:34 AM 37.4 °F 29.3 °F 32.0 °F 81% 29.70 in 10.0 mi ENE 12.7 mph 17.3 mph N/A   Overcast
3:54 AM 37.4 °F 30.3 °F 32.0 °F 81% 29.70 in 10.0 mi ENE 10.4 mph 16.1 mph N/A   Overcast
4:13 AM 37.4 °F 29.8 °F 32.0 °F 81% 29.68 in 10.0 mi ENE 11.5 mph - N/A   Overcast
4:34 AM 37.4 °F 30.8 °F 32.0 °F 81% 29.67 in 10.0 mi ENE 9.2 mph 16.1 mph N/A   Overcast
4:54 AM 37.4 °F 32.1 °F 32.0 °F 81% 29.68 in 10.0 mi ENE 6.9 mph - N/A   Overcast
5:13 AM 37.4 °F 32.1 °F 32.0 °F 81% 29.67 in 10.0 mi East 6.9 mph - N/A   Overcast
5:34 AM 37.4 °F 32.1 °F 33.8 °F 87% 29.69 in 10.0 mi East 6.9 mph - N/A   Overcast
5:53 AM 37.4 °F 30.8 °F 33.8 °F 87% 29.67 in 10.0 mi ENE 9.2 mph - N/A   Overcast
6:13 AM 37.4 °F 31.4 °F 33.8 °F 87% 29.67 in 10.0 mi NE 8.1 mph - N/A Thunderstorm Overcast
6:34 AM 37.4 °F 30.8 °F 33.8 °F 87% 29.67 in 10.0 mi NE 9.2 mph - N/A   Overcast
6:53 AM 37.4 °F 31.4 °F 33.8 °F 87% 29.68 in 10.0 mi NE 8.1 mph - N/A   Overcast
7:13 AM 37.4 °F 32.1 °F 33.8 °F 87% 29.66 in 10.0 mi ENE 6.9 mph - N/A   Overcast
7:34 AM 39.2 °F 33.6 °F 33.8 °F 81% 29.66 in 10.0 mi NE 8.1 mph - N/A   Overcast
7:53 AM 39.2 °F 34.2 °F 33.8 °F 81% 29.66 in 10.0 mi NE 6.9 mph - N/A   Overcast
8:13 AM 39.2 °F 33.0 °F 33.8 °F 81% 29.65 in 10.0 mi NE 9.2 mph - N/A   Overcast
8:34 AM 39.2 °F 34.2 °F 33.8 °F 81% 29.65 in 10.0 mi NE 6.9 mph - N/A   Overcast
8:53 AM 39.2 °F 33.6 °F 33.8 °F 81% 29.66 in 10.0 mi NE 8.1 mph - N/A   Overcast
9:13 AM 39.2 °F 33.6 °F 33.8 °F 81% 29.67 in 10.0 mi NE 8.1 mph - N/A   Mostly Cloudy
9:34 AM 39.2 °F 33.6 °F 35.6 °F 87% 29.67 in 10.0 mi ENE 8.1 mph - N/A   Clear
9:53 AM 41.0 °F 35.8 °F 35.6 °F 81% 29.66 in 10.0 mi ENE 8.1 mph - N/A   Clear
10:14 AM 42.8 °F 38.6 °F 35.6 °F 76% 29.66 in 10.0 mi NE 6.9 mph - N/A   Clear
10:33 AM 44.6 °F 40.7 °F 35.6 °F 71% 29.64 in 10.0 mi ENE 6.9 mph - N/A   Clear
10:53 AM 46.4 °F 42.9 °F 35.6 °F 66% 29.63 in 10.0 mi NE 6.9 mph - N/A   Clear
11:14 AM 46.4 °F 42.9 °F 35.6 °F 66% 29.63 in 10.0 mi NE 6.9 mph - N/A   Clear
11:33 AM 46.4 °F 42.4 °F 35.6 °F 66% 29.63 in 10.0 mi NNE 8.1 mph - N/A   Clear
11:54 AM 46.4 °F 43.5 °F 35.6 °F 66% 29.63 in 10.0 mi NNE 5.8 mph - N/A   Clear
12:13 PM 46.4 °F 42.9 °F 37.4 °F 71% 29.63 in 10.0 mi NNE 6.9 mph - N/A   Clear
12:33 PM 48.2 °F - 37.4 °F 66% 29.63 in 10.0 mi NNE 6.9 mph - N/A   Clear
12:54 PM 48.2 °F - 37.4 °F 66% 29.63 in 10.0 mi ENE 9.2 mph - N/A   Clear
1:13 PM 50.0 °F - 37.4 °F 62% 29.62 in 10.0 mi NNE 9.2 mph - N/A   Clear
1:34 PM 50.0 °F - 37.4 °F 62% 29.62 in 10.0 mi NE 10.4 mph - N/A   Clear
1:54 PM 51.8 °F - 37.4 °F 58% 29.63 in 10.0 mi ENE 5.8 mph - N/A   Clear
2:13 PM 51.8 °F - 37.4 °F 58% 29.63 in 10.0 mi NE 5.8 mph - N/A   Clear
2:34 PM 50.0 °F - 37.4 °F 62% 29.64 in 10.0 mi NE 3.5 mph - N/A   Clear
2:53 PM 50.0 °F - 37.4 °F 62% 29.63 in 10.0 mi East 5.8 mph - N/A   Clear
3:13 PM 51.8 °F - 37.4 °F 58% 29.62 in 10.0 mi ENE 6.9 mph - N/A   Clear
3:33 PM 48.2 °F - 37.4 °F 66% 29.61 in 10.0 mi NE 6.9 mph - N/A   Clear
3:54 PM 48.2 °F - 37.4 °F 66% 29.61 in 10.0 mi East 5.8 mph - N/A   Clear
4:13 PM 48.2 °F - 37.4 °F 66% 29.61 in 10.0 mi ENE 4.6 mph - N/A   Clear
4:34 PM 48.2 °F - 37.4 °F 66% 29.60 in 10.0 mi ENE 8.1 mph - N/A   Clear
4:54 PM 46.4 °F 42.4 °F 37.4 °F 71% 29.61 in 10.0 mi ENE 8.1 mph - N/A   Clear
5:13 PM 46.4 °F 44.3 °F 37.4 °F 71% 29.61 in 10.0 mi East 4.6 mph - N/A   Clear
5:34 PM 44.6 °F 41.4 °F 37.4 °F 76% 29.61 in 10.0 mi ENE 5.8 mph - N/A   Clear
5:53 PM 44.6 °F 43.1 °F 37.4 °F 76% 29.62 in 10.0 mi East 3.5 mph - N/A   Clear
6:13 PM 42.8 °F 41.1 °F 37.4 °F 81% 29.64 in 10.0 mi East 3.5 mph - N/A   Clear
6:34 PM 41.0 °F 39.0 °F 37.4 °F 87% 29.64 in 10.0 mi ENE 3.5 mph - N/A   Clear
6:53 PM 41.0 °F 39.0 °F 35.6 °F 81% 29.64 in 10.0 mi NE 3.5 mph - N/A   Clear
7:14 PM 39.2 °F - 37.4 °F 93% 29.65 in 10.0 mi Calm Calm - N/A   Clear
7:33 PM 39.2 °F - 37.4 °F 93% 29.65 in 10.0 mi Calm Calm - N/A   Mostly Cloudy
7:53 PM 41.0 °F 37.1 °F 35.6 °F 81% 29.65 in 10.0 mi East 5.8 mph - N/A   Overcast
8:13 PM 39.2 °F 35.9 °F 35.6 °F 87% 29.65 in 10.0 mi ENE 4.6 mph - N/A   Overcast
8:33 PM 39.2 °F 35.9 °F 35.6 °F 87% 29.64 in 10.0 mi NE 4.6 mph - N/A   Overcast
8:53 PM 39.2 °F 33.6 °F 35.6 °F 87% 29.63 in 10.0 mi NNE 8.1 mph - N/A   Mostly Cloudy
9:13 PM 39.2 °F 33.0 °F 35.6 °F 87% 29.62 in 10.0 mi NE 9.2 mph - N/A   Mostly Cloudy
9:34 PM 39.2 °F 34.2 °F 35.6 °F 87% 29.62 in 10.0 mi NNE 6.9 mph - N/A   Scattered Clouds
9:53 PM 39.2 °F 34.2 °F 35.6 °F 87% 29.62 in 10.0 mi North 6.9 mph - N/A   Mostly Cloudy
10:14 PM 39.2 °F 33.6 °F 35.6 °F 87% 29.62 in 10.0 mi NNE 8.1 mph - N/A   Overcast
10:33 PM 39.2 °F 33.6 °F 35.6 °F 87% 29.60 in 10.0 mi NNE 8.1 mph - N/A   Overcast
10:54 PM 39.2 °F 34.2 °F 35.6 °F 87% 29.60 in 10.0 mi NNE 6.9 mph - N/A   Overcast
11:13 PM 39.2 °F 35.0 °F 35.6 °F 87% 29.60 in 10.0 mi NE 5.8 mph - N/A   Overcast
11:33 PM 37.4 °F 30.8 °F 35.6 °F 93% 29.59 in 7.0 mi NNE 9.2 mph - N/A   Overcast
11:54 PM 37.4 °F 31.4 °F 35.6 °F 93% 29.59 in 7.0 mi NNE 8.1 mph - N/A   Overcast